TimeNZST,TemperatureF,Dew PointF,Humidity,Sea Level PressureIn,VisibilityMPH,Wind Direction,Wind SpeedMPH,Gust SpeedMPH,PrecipitationIn,Events,Conditions,WindDirDegrees,DateUTC
12:00 AM,51.8,50.0,94,29.68,6.2,East,3.5,-,N/A,,Mostly Cloudy,80,2013-09-21 12:00:00
12:30 AM,51.8,50.0,94,29.68,6.2,East,4.6,-,N/A,,Mostly Cloudy,80,2013-09-21 12:30:00
1:00 AM,51.8,50.0,94,29.71,6.2,SSE,2.3,-,N/A,,Overcast,150,2013-09-21 13:00:00
1:30 AM,50.0,50.0,100,29.71,6.2,ENE,4.6,-,N/A,,Overcast,70,2013-09-21 13:30:00
2:00 AM,48.2,48.2,100,29.68,6.2,NE,5.8,-,N/A,,Partly Cloudy,50,2013-09-21 14:00:00
2:30 AM,48.2,46.4,93,29.68,6.2,NE,3.5,-,N/A,,Unknown,40,2013-09-21 14:30:00
3:00 AM,46.4,44.6,93,29.68,1.0,ESE,1.2,-,N/A,Fog,Patches of Fog,110,2013-09-21 15:00:00
3:30 AM,46.4,46.4,100,29.68,5.0,Calm,Calm,-,N/A,,Mostly Cloudy,0,2013-09-21 15:30:00
4:00 AM,44.6,44.6,100,29.68,3.1,NNW,1.2,-,N/A,,Overcast,330,2013-09-21 16:00:00
4:30 AM,46.4,46.4,100,29.68,6.2,NNW,3.5,-,N/A,,Overcast,340,2013-09-21 16:30:00
5:00 AM,46.4,46.4,100,29.68,6.2,SSW,4.6,-,N/A,,Mostly Cloudy,200,2013-09-21 17:00:00
5:30 AM,48.2,46.4,93,29.68,6.2,SSW,2.3,-,N/A,,Mostly Cloudy,210,2013-09-21 17:30:00
6:00 AM,46.4,46.4,100,29.65,3.7,SSW,2.3,-,N/A,,Overcast,200,2013-09-21 18:00:00
6:30 AM,48.2,48.2,100,29.68,3.1,West,2.3,-,N/A,,Overcast,260,2013-09-21 18:30:00
7:00 AM,48.2,46.4,93,29.68,3.1,SSW,8.1,-,N/A,,Overcast,210,2013-09-21 19:00:00
7:30 AM,46.4,46.4,100,29.68,6.2,SW,6.9,-,N/A,,Mostly Cloudy,220,2013-09-21 19:30:00
8:00 AM,46.4,46.4,100,29.68,5.6,SW,5.8,-,N/A,,Overcast,230,2013-09-21 20:00:00
8:30 AM,46.4,46.4,100,29.68,3.7,WSW,6.9,-,N/A,,Light Drizzle,240,2013-09-21 20:30:00
9:00 AM,48.2,46.4,93,29.68,5.0,SW,6.9,-,N/A,Rain,Light Rain Showers,220,2013-09-21 21:00:00
9:30 AM,48.2,48.2,100,29.68,4.3,SSW,10.4,-,N/A,Rain,Light Rain,200,2013-09-21 21:30:00
10:00 AM,48.2,48.2,100,29.65,3.1,SSW,12.7,-,N/A,,Light Drizzle,210,2013-09-21 22:00:00
10:30 AM,50.0,48.2,94,29.65,5.0,SW,5.8,-,N/A,Rain,Light Rain Showers,220,2013-09-21 22:30:00
11:00 AM,50.0,50.0,100,29.65,3.1,SW,9.2,-,N/A,Rain,Light Rain,220,2013-09-21 23:00:00
11:30 AM,50.0,50.0,100,29.62,5.6,SW,11.5,-,N/A,Rain,Light Rain,220,2013-09-21 23:30:00
12:00 PM,50.0,50.0,100,29.62,5.0,SSW,10.4,-,N/A,Rain,Light Rain Showers,210,2013-09-22 00:00:00
12:30 PM,50.0,50.0,100,29.62,6.2,SW,8.1,-,N/A,Rain,Light Rain Showers,230,2013-09-22 00:30:00
1:00 PM,50.0,50.0,100,29.62,4.3,West,8.1,-,N/A,Rain,Rain,280,2013-09-22 01:00:00
1:30 PM,50.0,50.0,100,29.59,3.7,WSW,9.2,-,N/A,Rain,Light Rain,240,2013-09-22 01:30:00
2:00 PM,51.8,50.0,94,29.56,6.2,SSW,12.7,-,N/A,Rain,Light Rain,210,2013-09-22 02:00:00
2:30 PM,51.8,50.0,94,29.56,6.2,SW,11.5,-,N/A,,Overcast,220,2013-09-22 02:30:00
3:00 PM,53.6,51.8,94,29.59,6.2,SW,10.4,-,N/A,,Mostly Cloudy,230,2013-09-22 03:00:00
3:30 PM,53.6,50.0,88,29.56,6.2,SW,13.8,-,N/A,,Mostly Cloudy,230,2013-09-22 03:30:00
4:00 PM,53.6,50.0,88,29.56,6.2,WSW,12.7,-,N/A,,Mostly Cloudy,240,2013-09-22 04:00:00
4:30 PM,53.6,50.0,88,29.59,6.2,WSW,9.2,-,N/A,,Mostly Cloudy,240,2013-09-22 04:30:00
5:00 PM,51.8,50.0,94,29.56,6.2,SW,11.5,-,N/A,,Overcast,220,2013-09-22 05:00:00
5:30 PM,51.8,50.0,94,29.59,6.2,SW,10.4,-,N/A,,Overcast,220,2013-09-22 05:30:00
6:00 PM,51.8,50.0,94,29.59,6.2,SW,3.5,-,N/A,,Overcast,220,2013-09-22 06:00:00
6:30 PM,51.8,50.0,94,29.59,6.2,SW,9.2,-,N/A,,Overcast,220,2013-09-22 06:30:00
7:00 PM,50.0,50.0,100,29.62,6.2,SW,6.9,-,N/A,,Overcast,220,2013-09-22 07:00:00
7:30 PM,50.0,50.0,100,29.62,6.2,SW,5.8,-,N/A,,Overcast,230,2013-09-22 07:30:00
8:00 PM,50.0,50.0,100,29.62,6.2,SW,3.5,-,N/A,,Overcast,230,2013-09-22 08:00:00
8:30 PM,50.0,50.0,100,29.62,5.6,SW,3.5,-,N/A,,Overcast,230,2013-09-22 08:30:00
9:00 PM,50.0,48.2,94,29.62,5.6,SW,1.2,-,N/A,,Overcast,230,2013-09-22 09:00:00
9:30 PM,50.0,48.2,94,29.62,5.6,Calm,Calm,-,N/A,,Overcast,0,2013-09-22 09:30:00
10:00 PM,50.0,48.2,94,29.65,4.3,SW,3.5,-,N/A,,Overcast,220,2013-09-22 10:00:00
10:30 PM,48.2,48.2,100,29.65,3.7,SW,4.6,-,N/A,,Mostly Cloudy,220,2013-09-22 10:30:00
11:00 PM,48.2,48.2,100,29.65,2.8,SW,3.5,-,N/A,,Mostly Cloudy,230,2013-09-22 11:00:00
11:30 PM,48.2,48.2,100,29.65,3.1,WSW,2.3,-,N/A,,Overcast,250,2013-09-22 11:30:00